Weather History for Harvey, ND

Change the Weather History Date:

Friday, March 14, 2014

  Actual Average (KRUG) Record (KRUG)
Temperature  
Mean Temperature 29 °F -  
Max Temperature 35 °F 31 °F 47 °F (1981)
Min Temperature 21 °F 15 °F -20 °F (1956)
Degree Days  
Heating Degree Days 36    
Moisture  
Dew Point 26 °F    
Average Humidity 89    
Maximum Humidity 100    
Minimum Humidity 80    
Precipitation  
Precipitation 0.00 in - - ()
Sea Level Pressure  
Sea Level Pressure 29.81 in    
Wind  
Wind Speed 16 mph (North)    
Max Wind Speed 23 mph    
Max Gust Speed 31 mph    
Visibility 10 miles    
Events Snow    
Averages and records for this station are not official NWS values.
T = Trace of Precipitation, MM = Missing Value Source: NWS Daily Summary

Daily Weather History Graph

Daily Weather History Graph

Search for Another Location

Airport:

Trip Planner

Search our weather history database for the weather conditions in past years. The results will help you decide how hot, cold, wet, or windy it might be!

Date:

Astronomy

Mar. 14, 2014 Rise Set
Actual Time 7:54 AM CDT 7:43 PM CDT
Civil Twilight 7:23 AM CDT 8:14 PM CDT
Nautical Twilight 6:48 AM CDT 8:50 PM CDT
Astronomical Twilight 6:11 AM CDT 9:27 PM CDT
Moon 6:02 PM CDT (3/14) 6:42 AM CDT (3/14)
Length of Visible Light 12h 50m
Length of Day
11h 49m
Waxing Gibbous, 96% of the Moon is Illuminated
Mar 14
Waxing Gibbous
Mar 16
Full
Mar 23
Last Quarter
Mar 30
New
Apr 7
First Quarter

Hourly Weather History & Observations

Time (CDT) Temp. Windchill Dew Point Humidity Pressure Visibility Wind Dir Wind Speed Gust Speed Precip Events Conditions
12:15 AM 35.6 °F 24.8 °F 32.0 °F 87% 29.62 in 10.0 mi WNW 19.6 mph 26.5 mph N/A   Mostly Cloudy
12:35 AM 35.6 °F 24.5 °F 32.0 °F 87% 29.63 in 10.0 mi WNW 20.7 mph 28.8 mph N/A   Overcast
12:55 AM 35.6 °F 24.2 °F 32.0 °F 87% 29.63 in 10.0 mi WNW 21.9 mph 31.1 mph N/A   Overcast
1:15 AM 35.6 °F 24.5 °F 32.0 °F 87% 29.63 in 10.0 mi WNW 20.7 mph 28.8 mph N/A   Overcast
1:35 AM 35.6 °F 24.8 °F 32.0 °F 87% 29.63 in 10.0 mi WNW 19.6 mph 27.6 mph N/A   Overcast
1:55 AM 35.6 °F 25.2 °F 32.0 °F 87% 29.64 in 10.0 mi WNW 18.4 mph 26.5 mph N/A   Overcast
2:15 AM 35.6 °F 25.2 °F 32.0 °F 87% 29.64 in 10.0 mi WNW 18.4 mph 25.3 mph N/A   Overcast
2:35 AM 35.6 °F 25.2 °F 32.0 °F 87% 29.65 in 10.0 mi WNW 18.4 mph 26.5 mph N/A   Overcast
2:55 AM 35.6 °F 24.8 °F 32.0 °F 87% 29.65 in 10.0 mi WNW 19.6 mph 23.0 mph N/A   Overcast
3:15 AM 35.6 °F 24.5 °F 32.0 °F 87% 29.65 in 10.0 mi WNW 20.7 mph 26.5 mph N/A   Overcast
3:35 AM 35.6 °F 24.0 °F 32.0 °F 87% 29.65 in 10.0 mi WNW 23.0 mph 27.6 mph N/A   Overcast
3:55 AM 35.6 °F 24.2 °F 32.0 °F 87% 29.66 in 10.0 mi WNW 21.9 mph 27.6 mph N/A   Overcast
4:15 AM 35.6 °F 25.2 °F 32.0 °F 87% 29.66 in 10.0 mi WNW 18.4 mph 24.2 mph N/A   Overcast
4:35 AM 33.8 °F 23.2 °F 32.0 °F 93% 29.67 in 10.0 mi WNW 17.3 mph 26.5 mph N/A   Overcast
4:55 AM 33.8 °F 22.8 °F 32.0 °F 93% 29.67 in 10.0 mi WNW 18.4 mph 25.3 mph N/A   Overcast
5:15 AM 33.8 °F 23.5 °F 32.0 °F 93% 29.67 in 10.0 mi WNW 16.1 mph 25.3 mph N/A   Overcast
5:35 AM 33.8 °F 22.8 °F 32.0 °F 93% 29.68 in 10.0 mi WNW 18.4 mph 24.2 mph N/A   Overcast
5:55 AM 33.8 °F 23.2 °F 32.0 °F 93% 29.68 in 10.0 mi WNW 17.3 mph 23.0 mph N/A   Overcast
6:15 AM 33.8 °F 22.5 °F 32.0 °F 93% 29.69 in 10.0 mi WNW 19.6 mph 24.2 mph N/A   Overcast
6:35 AM 33.8 °F 23.5 °F 32.0 °F 93% 29.70 in 10.0 mi NW 16.1 mph 24.2 mph N/A   Overcast
6:55 AM 33.8 °F 23.5 °F 32.0 °F 93% 29.70 in 10.0 mi WNW 16.1 mph 23.0 mph N/A   Overcast
7:15 AM 33.8 °F 23.2 °F 32.0 °F 93% 29.71 in 10.0 mi WNW 17.3 mph 21.9 mph N/A   Overcast
7:35 AM 33.8 °F 23.5 °F 32.0 °F 93% 29.72 in 10.0 mi NW 16.1 mph 20.7 mph N/A   Overcast
7:55 AM 32.0 °F 22.1 °F 32.0 °F 100% 29.73 in 8.0 mi NW 13.8 mph - N/A Snow Light Snow
8:15 AM 32.0 °F 21.6 °F 32.0 °F 100% 29.74 in 5.0 mi NW 15.0 mph 21.9 mph N/A Snow Light Snow
8:35 AM 32.0 °F 21.6 °F 32.0 °F 100% 29.75 in 10.0 mi NW 15.0 mph - N/A   Overcast
8:55 AM 32.0 °F 20.8 °F 32.0 °F 100% 29.75 in 10.0 mi NNW 17.3 mph 23.0 mph N/A   Overcast
9:15 AM 32.0 °F 21.6 °F 32.0 °F 100% 29.76 in 10.0 mi NNW 15.0 mph - N/A   Overcast
9:35 AM 32.0 °F 21.6 °F 32.0 °F 100% 29.78 in 10.0 mi NNE 15.0 mph 25.3 mph N/A   Overcast
9:55 AM 30.2 °F 19.8 °F 30.2 °F 100% 29.79 in 10.0 mi NNE 13.8 mph - N/A   Overcast
10:15 AM 30.2 °F 19.3 °F 28.4 °F 93% 29.79 in 10.0 mi North 15.0 mph 21.9 mph N/A   Overcast
10:35 AM 28.4 °F 16.6 °F 26.6 °F 93% 29.80 in 10.0 mi North 16.1 mph - N/A   Overcast
10:55 AM 28.4 °F 17.0 °F 26.6 °F 93% 29.81 in 10.0 mi NNE 15.0 mph 19.6 mph N/A   Overcast
11:15 AM 28.4 °F 17.5 °F 24.8 °F 86% 29.81 in 10.0 mi North 13.8 mph - N/A   Overcast
11:35 AM 26.6 °F 16.2 °F 24.8 °F 93% 29.83 in 8.0 mi NE 11.5 mph - N/A   Overcast
11:55 AM 26.6 °F 15.7 °F 24.8 °F 93% 29.84 in 7.0 mi NNE 12.7 mph - N/A Snow Light Snow
12:15 PM 26.6 °F 17.5 °F 23.0 °F 86% 29.85 in 10.0 mi North 9.2 mph - N/A   Overcast
12:35 PM 26.6 °F 16.8 °F 23.0 °F 86% 29.86 in 10.0 mi North 10.4 mph - N/A   Overcast
12:55 PM 26.6 °F 16.8 °F 23.0 °F 86% 29.86 in 10.0 mi NNE 10.4 mph - N/A   Overcast
1:15 PM 26.6 °F 16.8 °F 23.0 °F 86% 29.86 in 10.0 mi NNE 10.4 mph - N/A   Overcast
1:35 PM 24.8 °F 14.6 °F 23.0 °F 93% 29.86 in 6.0 mi NNE 10.4 mph - N/A   Overcast
1:55 PM 24.8 °F 16.9 °F 23.0 °F 93% 29.87 in 10.0 mi NNE 6.9 mph - N/A   Overcast
2:15 PM 24.8 °F 20.5 °F 23.0 °F 93% 29.87 in 10.0 mi NNE 3.5 mph - N/A   Overcast
2:35 PM 26.6 °F 22.6 °F 23.0 °F 86% 29.87 in 10.0 mi North 3.5 mph - N/A   Overcast
2:55 PM 26.6 °F 20.0 °F 23.0 °F 86% 29.87 in 10.0 mi North 5.8 mph - N/A   Overcast
3:15 PM 26.6 °F 20.0 °F 23.0 °F 86% 29.87 in 10.0 mi NNW 5.8 mph - N/A   Overcast
3:35 PM 26.6 °F 20.0 °F 23.0 °F 86% 29.88 in 10.0 mi North 5.8 mph - N/A   Overcast
3:55 PM 26.6 °F 19.1 °F 23.0 °F 86% 29.88 in 10.0 mi NE 6.9 mph - N/A   Overcast
4:15 PM 26.6 °F 18.2 °F 23.0 °F 86% 29.89 in 10.0 mi NE 8.1 mph - N/A   Overcast
4:35 PM 26.6 °F 20.0 °F 21.2 °F 80% 29.89 in 10.0 mi NNE 5.8 mph - N/A   Overcast
4:55 PM 26.6 °F 22.6 °F 21.2 °F 80% 29.90 in 10.0 mi NNE 3.5 mph - N/A   Overcast
5:15 PM 26.6 °F 21.2 °F 23.0 °F 86% 29.90 in 10.0 mi NE 4.6 mph - N/A   Overcast
5:35 PM 26.6 °F 21.2 °F 23.0 °F 86% 29.90 in 10.0 mi NNE 4.6 mph - N/A   Overcast
5:55 PM 26.6 °F 20.0 °F 23.0 °F 86% 29.90 in 10.0 mi NE 5.8 mph - N/A   Overcast
6:15 PM 26.6 °F 19.1 °F 23.0 °F 86% 29.90 in 10.0 mi NE 6.9 mph - N/A   Overcast
6:35 PM 26.6 °F 20.0 °F 23.0 °F 86% 29.90 in 10.0 mi NE 5.8 mph - N/A   Overcast
6:55 PM 26.6 °F 17.5 °F 23.0 °F 86% 29.90 in 10.0 mi ENE 9.2 mph - N/A   Overcast
7:15 PM 26.6 °F 16.8 °F 23.0 °F 86% 29.91 in 10.0 mi ENE 10.4 mph - N/A   Overcast
7:35 PM 26.6 °F 16.8 °F 23.0 °F 86% 29.92 in 10.0 mi East 10.4 mph - N/A   Overcast
7:55 PM 26.6 °F 19.1 °F 21.2 °F 80% 29.93 in 10.0 mi East 6.9 mph - N/A   Overcast
8:15 PM 26.6 °F 18.2 °F 21.2 °F 80% 29.94 in 10.0 mi East 8.1 mph - N/A   Overcast
8:35 PM 26.6 °F 19.1 °F 21.2 °F 80% 29.94 in 10.0 mi ESE 6.9 mph - N/A   Overcast
8:55 PM 26.6 °F 18.2 °F 23.0 °F 86% 29.94 in 10.0 mi East 8.1 mph - N/A   Overcast
9:15 PM 24.8 °F 13.4 °F 23.0 °F 93% 29.94 in 10.0 mi East 12.7 mph - N/A   Overcast
9:35 PM 24.8 °F 13.4 °F 21.2 °F 86% 29.94 in 10.0 mi East 12.7 mph - N/A   Overcast
9:55 PM 24.8 °F 12.9 °F 19.4 °F 80% 29.95 in 10.0 mi East 13.8 mph - N/A   Overcast
10:15 PM 23.0 °F 11.1 °F 19.4 °F 86% 29.95 in 10.0 mi East 12.7 mph - N/A   Overcast
10:35 PM 23.0 °F 10.6 °F 19.4 °F 86% 29.95 in 10.0 mi East 13.8 mph - N/A   Overcast
10:55 PM 23.0 °F 10.6 °F 19.4 °F 86% 29.95 in 10.0 mi East 13.8 mph - N/A   Overcast
11:15 PM 23.0 °F 11.1 °F 19.4 °F 86% 29.95 in 10.0 mi East 12.7 mph - N/A   Overcast
11:35 PM 23.0 °F 10.1 °F 19.4 °F 86% 29.95 in 10.0 mi East 15.0 mph - N/A   Overcast
11:55 PM 21.2 °F 7.8 °F 17.6 °F 86% 29.95 in 10.0 mi East 15.0 mph - N/A   Overcast